| time (UTC) | temp F | wind direction | speed MPH | gust MPH | rain 1hr in | rain 24hr in | rain mn in | humidity % | barometer mb |
| 20260903131013 | 63 | 255 | 0.0 | 1.0 | 0.00 | 0.54 | 0.54 | 100 | 1013.1 |
| 20260903130513 | 63 | 219 | 0.0 | 1.0 | 0.00 | 0.54 | 0.54 | 100 | 1013.0 |
| 20260903130014 | 63 | 207 | 0.0 | 1.0 | 0.00 | 0.54 | 0.54 | 100 | 1013.1 |
| 20260903125513 | 63 | 260 | 0.0 | 1.0 | 0.00 | 0.54 | 0.54 | 100 | 1013.1 |
| 20260903124513 | 63 | 218 | 0.0 | 1.0 | 0.00 | 0.54 | 0.54 | 100 | 1013.3 |
| 20260903124013 | 62 | 238 | 0.0 | 1.0 | 0.00 | 0.54 | 0.54 | 100 | 1013.4 |
| 20260903123014 | 62 | 297 | 0.0 | 1.0 | 0.00 | 0.54 | 0.54 | 100 | 1013.5 |
| 20260903122513 | 62 | 174 | 0.0 | 0.0 | 0.02 | 0.54 | 0.54 | 100 | 1013.5 |
| 20260903121513 | 62 | 224 | 0.0 | 0.0 | 0.02 | 0.54 | 0.54 | 100 | 1013.6 |
| 20260903121013 | 62 | 233 | 0.0 | 1.0 | 0.02 | 0.54 | 0.54 | 100 | 1013.8 |
| 20260903120513 | 62 | 107 | 0.0 | 1.0 | 0.02 | 0.54 | 0.54 | 100 | 1013.9 |
| 20260903120013 | 62 | 331 | 0.0 | 0.0 | 0.02 | 0.54 | 0.54 | 100 | 1013.9 |
| 20260903115013 | 62 | 358 | 0.0 | 0.0 | 0.04 | 0.54 | 0.54 | 100 | 1014.0 |
| 20260903114513 | 62 | 29 | 0.0 | 0.0 | 0.04 | 0.54 | 0.54 | 100 | 1014.0 |
| 20260903113513 | 61 | 184 | 0.0 | 0.0 | 0.08 | 0.54 | 0.54 | 100 | 1013.9 |
| 20260903113013 | 61 | 180 | 0.0 | 0.0 | 0.10 | 0.54 | 0.54 | 100 | 1013.9 |
| 20260903112513 | 61 | 181 | 0.0 | 0.0 | 0.08 | 0.52 | 0.52 | 100 | 1014.1 |
| 20260903112013 | 61 | 180 | 0.0 | 1.0 | 0.10 | 0.52 | 0.52 | 100 | 1013.9 |
| 20260903111513 | 61 | 43 | 0.0 | 1.0 | 0.10 | 0.52 | 0.52 | 100 | 1013.9 |
| 20260903111013 | 61 | 150 | 0.0 | 0.0 | 0.12 | 0.52 | 0.52 | 100 | 1013.9 |
| 20260903110513 | 61 | 255 | 0.0 | 0.0 | 0.12 | 0.52 | 0.52 | 100 | 1013.9 |
| 20260903110013 | 61 | 309 | 0.0 | 1.0 | 0.16 | 0.52 | 0.52 | 100 | 1013.9 |
| 20260903104512 | 61 | 278 | 0.0 | 1.0 | 0.22 | 0.50 | 0.50 | 100 | 1014.2 |
| 20260903104013 | 61 | 221 | 1.0 | 2.0 | 0.20 | 0.48 | 0.48 | 100 | 1014.3 |
| 20260903103513 | 61 | 276 | 1.0 | 2.0 | 0.18 | 0.46 | 0.46 | 100 | 1014.2 |
| 20260903103013 | 61 | 169 | 1.0 | 3.0 | 0.16 | 0.44 | 0.44 | 100 | 1013.9 |
| 20260903102512 | 61 | 231 | 1.0 | 3.0 | 0.16 | 0.44 | 0.44 | 100 | 1013.9 |
| 20260903102013 | 61 | 278 | 1.0 | 1.0 | 0.14 | 0.43 | 0.43 | 100 | 1014.0 |
| 20260903101513 | 61 | 302 | 1.0 | 1.0 | 0.14 | 0.43 | 0.43 | 100 | 1013.6 |
| 20260903101012 | 61 | 140 | 0.0 | 0.0 | 0.12 | 0.41 | 0.41 | 100 | 1013.4 |
| 20260903100513 | 61 | 115 | 0.0 | 0.0 | 0.12 | 0.41 | 0.41 | 100 | 1013.4 |
| 20260903100012 | 61 | 155 | 0.0 | 0.0 | 0.08 | 0.37 | 0.37 | 100 | 1013.4 |
| 20260903095513 | 61 | 194 | 0.0 | 1.0 | 0.02 | 0.31 | 0.31 | 100 | 1013.5 |
| 20260903094513 | 60 | 154 | 0.0 | 1.0 | 0.00 | 0.29 | 0.29 | 100 | 1013.7 |
| 20260903094012 | 60 | 173 | 0.0 | 1.0 | 0.00 | 0.29 | 0.29 | 100 | 1013.7 |
| 20260903093513 | 60 | 184 | 0.0 | 1.0 | 0.04 | 0.29 | 0.29 | 100 | 1013.8 |
| 20260903093013 | 60 | 140 | 0.0 | 2.0 | 0.08 | 0.29 | 0.29 | 100 | 1013.8 |
| 20260903092012 | 60 | 171 | 0.0 | 0.0 | 0.09 | 0.29 | 0.29 | 100 | 1013.9 |
| 20260903091013 | 60 | 128 | 0.0 | 1.0 | 0.13 | 0.29 | 0.29 | 100 | 1014.0 |
| 20260903090513 | 60 | 250 | 0.0 | 0.0 | 0.17 | 0.29 | 0.29 | 100 | 1014.0 |
| 20260903090013 | 60 | 49 | 0.0 | 1.0 | 0.19 | 0.29 | 0.29 | 100 | 1013.9 |
| 20260903085513 | 60 | 136 | 0.0 | 0.0 | 0.23 | 0.29 | 0.29 | 100 | 1013.9 |
| 20260903085012 | 60 | 141 | 0.0 | 1.0 | 0.25 | 0.29 | 0.29 | 100 | 1013.9 |
| 20260903084512 | 60 | 130 | 0.0 | 1.0 | 0.27 | 0.29 | 0.29 | 100 | 1014.2 |
| 20260903084013 | 60 | 154 | 0.0 | 1.0 | 0.29 | 0.29 | 0.29 | 100 | 1014.3 |
| 20260903083012 | 60 | 33 | 1.0 | 3.0 | 0.21 | 0.21 | 0.21 | 100 | 1013.9 |
| 20260903082512 | 60 | 135 | 1.0 | 2.0 | 0.19 | 0.19 | 0.19 | 100 | 1013.9 |
| 20260903081513 | 60 | 180 | 1.0 | 3.0 | 0.18 | 0.18 | 0.18 | 100 | 1014.4 |
| 20260903081012 | 60 | 230 | 1.0 | 2.0 | 0.16 | 0.16 | 0.16 | 100 | 1014.6 |
| 20260903080512 | 60 | 232 | 0.0 | 2.0 | 0.12 | 0.12 | 0.12 | 100 | 1014.7 |
| 20260903080012 | 60 | 171 | 1.0 | 1.0 | 0.10 | 0.10 | 0.10 | 99 | 1014.7 |
| 20260903075513 | 61 | 182 | 0.0 | 1.0 | 0.06 | 0.06 | 0.06 | 97 | 1014.8 |
| 20260903075013 | 61 | 171 | 0.0 | 1.0 | 0.04 | 0.04 | 0.04 | 95 | 1014.8 |
| 20260903074513 | 62 | 180 | 0.0 | 1.0 | 0.02 | 0.02 | 0.02 | 91 | 1015.0 |
| 20260903074012 | 62 | 168 | 0.0 | 1.0 | 0.00 | 0.00 | 0.00 | 88 | 1014.8 |
| 20260903073013 | 62 | 145 | 0.0 | 3.0 | 0.00 | 0.00 | 0.00 | 86 | 1014.8 |
| 20260903072512 | 62 | 208 | 1.0 | 2.0 | 0.00 | 0.00 | 0.00 | 87 | 1015.0 |
| 20260903072012 | 62 | 122 | 1.0 | 3.0 | 0.00 | 0.00 | 0.00 | 86 | 1014.9 |
| 20260903071513 | 62 | 211 | 1.0 | 2.0 | 0.00 | 0.00 | 0.00 | 87 | 1014.9 |
| 20260903071012 | 62 | 151 | 1.0 | 2.0 | 0.00 | 0.00 | 0.00 | 87 | 1015.0 |
| 20260903070512 | 62 | 175 | 1.0 | 2.0 | 0.00 | 0.00 | 0.00 | 87 | 1015.1 |
| 20260903070013 | 62 | 146 | 1.0 | 5.0 | 0.00 | 0.00 | 0.00 | 87 | 1015.1 |
| 20260903065512 | 62 | 119 | 1.0 | 2.0 | 0.00 | 0.00 | 0.00 | 86 | 1015.2 |
| 20260903065013 | 62 | 212 | 1.0 | 5.0 | 0.00 | 0.00 | 0.00 | 86 | 1015.5 |
| 20260903064512 | 62 | 119 | 0.0 | 2.0 | 0.00 | 0.00 | 0.00 | 86 | 1015.5 |
| 20260903063512 | 62 | 211 | 1.0 | 2.0 | 0.00 | 0.00 | 0.00 | 87 | 1015.9 |
| 20260903063012 | 62 | 110 | 0.0 | 1.0 | 0.00 | 0.00 | 0.00 | 86 | 1016.0 |
| 20260903062512 | 62 | 165 | 0.0 | 1.0 | 0.00 | 0.00 | 0.00 | 87 | 1016.2 |
| 20260903062012 | 62 | 174 | 0.0 | 1.0 | 0.00 | 0.00 | 0.00 | 87 | 1016.2 |
| 20260903061512 | 62 | 227 | 1.0 | 2.0 | 0.00 | 0.00 | 0.00 | 87 | 1016.3 |
| 20260903061012 | 62 | 180 | 0.0 | 2.0 | 0.00 | 0.00 | 0.00 | 87 | 1016.4 |
| 20260903060512 | 62 | 215 | 0.0 | 1.0 | 0.00 | 0.00 | 0.00 | 87 | 1016.4 |
| 20260903060012 | 62 | 230 | 0.0 | 2.0 | 0.00 | 0.00 | 0.00 | 86 | 1016.5 |
| 20260903055512 | 62 | 136 | 0.0 | 2.0 | 0.00 | 0.00 | 0.00 | 86 | 1016.7 |
| 20260903055012 | 62 | 112 | 0.0 | 0.0 | 0.00 | 0.00 | 0.00 | 86 | 1016.8 |
| 20260903053512 | 62 | 118 | 0.0 | 2.0 | 0.00 | 0.00 | 0.00 | 86 | 1017.0 |
| 20260903052512 | 62 | 115 | 0.0 | 1.0 | 0.00 | 0.00 | 0.00 | 86 | 1017.1 |
| 20260903052012 | 62 | 157 | 0.0 | 3.0 | 0.00 | 0.00 | 0.00 | 87 | 1017.1 |
| 20260903051512 | 62 | 174 | 0.0 | 2.0 | 0.00 | 0.00 | 0.00 | 87 | 1017.0 |
| 20260903051012 | 62 | 212 | 0.0 | 2.0 | 0.00 | 0.00 | 0.00 | 87 | 1017.1 |
| 20260903050512 | 63 | 150 | 1.0 | 2.0 | 0.00 | 0.00 | 0.00 | 87 | 1017.1 |
| 20260903050012 | 63 | 153 | 0.0 | 1.0 | 0.00 | 0.00 | 0.00 | 86 | 1017.1 |
| 20260903045512 | 63 | 154 | 0.0 | 1.0 | 0.00 | 0.00 | 0.00 | 87 | 1017.3 |
| 20260903045012 | 63 | 163 | 0.0 | 1.0 | 0.00 | 0.00 | 0.00 | 85 | 1017.3 |
| 20260903044512 | 63 | 194 | 0.0 | 1.0 | 0.00 | 0.00 | 0.00 | 85 | 1017.4 |
| 20260903044011 | 63 | 124 | 0.0 | 1.0 | 0.00 | 0.00 | 0.00 | 85 | 1017.5 |
| 20260903043512 | 63 | 205 | 1.0 | 1.0 | 0.00 | 0.00 | 0.00 | 85 | 1017.6 |
| 20260903043012 | 63 | 175 | 0.0 | 1.0 | 0.00 | 0.00 | 0.00 | 86 | 1017.6 |
| 20260903042012 | 63 | 150 | 0.0 | 1.0 | 0.00 | 0.00 | 0.00 | 85 | 1017.6 |
| 20260903041511 | 63 | 137 | 0.0 | 2.0 | 0.00 | 0.00 | 0.00 | 85 | 1017.5 |
| 20260903040512 | 63 | 216 | 0.0 | 1.0 | 0.00 | 0.00 | 0.00 | 86 | 1017.5 |
| 20260903040012 | 63 | 188 | 1.0 | 2.0 | 0.00 | 0.00 | 0.00 | 86 | 1017.5 |
| 20260903035512 | 63 | 174 | 0.0 | 2.0 | 0.00 | 0.00 | 0.00 | 85 | 1017.2 |
| 20260903035012 | 63 | 203 | 0.0 | 1.0 | 0.00 | 0.00 | 0.00 | 85 | 1017.1 |
| 20260903034512 | 63 | 170 | 0.0 | 2.0 | 0.00 | 0.00 | 0.00 | 85 | 1017.0 |
| 20260903034011 | 63 | 117 | 0.0 | 2.0 | 0.00 | 0.00 | 0.00 | 83 | 1017.2 |
| 20260903033512 | 63 | 181 | 1.0 | 2.0 | 0.00 | 0.00 | 0.00 | 83 | 1017.3 |
| 20260903033011 | 63 | 188 | 1.0 | 2.0 | 0.00 | 0.00 | 0.00 | 83 | 1017.6 |
| 20260903032512 | 63 | 168 | 0.0 | 1.0 | 0.00 | 0.00 | 0.00 | 83 | 1017.7 |
| 20260903032011 | 63 | 111 | 1.0 | 2.0 | 0.00 | 0.00 | 0.00 | 82 | 1018.0 |
| 20260903031512 | 63 | 183 | 0.0 | 1.0 | 0.00 | 0.00 | 0.00 | 82 | 1018.1 |
| 20260903031012 | 63 | 238 | 0.0 | 1.0 | 0.00 | 0.00 | 0.00 | 82 | 1018.1 |
| 20260903030512 | 63 | 143 | 0.0 | 1.0 | 0.00 | 0.00 | 0.00 | 82 | 1018.1 |
| 20260903030012 | 63 | 134 | 0.0 | 1.0 | 0.00 | 0.00 | 0.00 | 81 | 1018.1 |
| 20260903025511 | 63 | 123 | 0.0 | 1.0 | 0.00 | 0.00 | 0.00 | 82 | 1018.0 |
| 20260903025012 | 63 | 137 | 0.0 | 2.0 | 0.00 | 0.00 | 0.00 | 80 | 1018.1 |
| 20260903024511 | 63 | 153 | 0.0 | 1.0 | 0.00 | 0.00 | 0.00 | 80 | 1018.2 |
| 20260903024012 | 63 | 170 | 0.0 | 1.0 | 0.00 | 0.00 | 0.00 | 82 | 1018.2 |
| 20260903023511 | 63 | 185 | 0.0 | 1.0 | 0.00 | 0.00 | 0.00 | 79 | 1018.4 |
| 20260903022512 | 63 | 133 | 1.0 | 1.0 | 0.00 | 0.00 | 0.00 | 80 | 1018.3 |
| 20260903022011 | 63 | 180 | 0.0 | 1.0 | 0.00 | 0.00 | 0.00 | 82 | 1018.3 |
| 20260903021512 | 63 | 143 | 0.0 | 1.0 | 0.00 | 0.00 | 0.00 | 82 | 1018.5 |
| 20260903021012 | 63 | 208 | 0.0 | 1.0 | 0.00 | 0.00 | 0.00 | 83 | 1018.3 |
| 20260903020511 | 63 | 188 | 0.0 | 0.0 | 0.00 | 0.00 | 0.00 | 85 | 1018.2 |
| 20260903020012 | 63 | 187 | 0.0 | 1.0 | 0.00 | 0.00 | 0.00 | 84 | 1018.4 |
| 20260903015512 | 63 | 181 | 0.0 | 0.0 | 0.00 | 0.00 | 0.00 | 83 | 1018.4 |
| 20260903015012 | 63 | 163 | 0.0 | 1.0 | 0.00 | 0.00 | 0.00 | 82 | 1018.5 |
| 20260903014512 | 63 | 259 | 0.0 | 1.0 | 0.00 | 0.00 | 0.00 | 83 | 1018.5 |
| 20260903014011 | 63 | 216 | 0.0 | 0.0 | 0.00 | 0.00 | 0.00 | 82 | 1018.3 |
| 20260903013512 | 63 | 207 | 0.0 | 0.0 | 0.00 | 0.00 | 0.00 | 82 | 1018.3 |
| 20260903013012 | 64 | 194 | 0.0 | 0.0 | 0.00 | 0.00 | 0.00 | 81 | 1018.1 |
| 20260903012511 | 64 | 201 | 0.0 | 0.0 | 0.00 | 0.00 | 0.00 | 81 | 1018.3 |
| 20260903012012 | 64 | 185 | 0.0 | 0.0 | 0.00 | 0.00 | 0.00 | 79 | 1018.2 |
| 20260903011512 | 64 | 188 | 0.0 | 1.0 | 0.00 | 0.00 | 0.00 | 79 | 1018.2 |
| 20260903010511 | 64 | 290 | 1.0 | 2.0 | 0.00 | 0.00 | 0.00 | 78 | 1018.5 |
| 20260903010012 | 65 | 163 | 0.0 | 2.0 | 0.00 | 0.00 | 0.00 | 77 | 1018.5 |
| 20260903005511 | 65 | 210 | 0.0 | 2.0 | 0.00 | 0.00 | 0.00 | 77 | 1018.5 |
| 20260903005011 | 65 | 157 | 1.0 | 2.0 | 0.00 | 0.00 | 0.00 | 77 | 1018.6 |
| 20260903004512 | 65 | 244 | 1.0 | 2.0 | 0.00 | 0.00 | 0.00 | 76 | 1018.5 |
| 20260903004011 | 65 | 219 | 1.0 | 2.0 | 0.00 | 0.00 | 0.00 | 80 | 1018.5 |
| 20260903003511 | 65 | 314 | 1.0 | 2.0 | 0.00 | 0.00 | 0.00 | 75 | 1018.5 |
| 20260903003012 | 65 | 183 | 0.0 | 1.0 | 0.00 | 0.00 | 0.00 | 75 | 1018.5 |
| 20260903002511 | 65 | 206 | 0.0 | 2.0 | 0.00 | 0.00 | 0.00 | 77 | 1018.5 |
| 20260903002012 | 65 | 145 | 1.0 | 6.0 | 0.00 | 0.00 | 0.00 | 74 | 1018.5 |
| 20260903001511 | 65 | 204 | 1.0 | 3.0 | 0.00 | 0.00 | 0.00 | 74 | 1018.4 |
| 20260903000512 | 66 | 226 | 1.0 | 2.0 | 0.00 | 0.00 | 0.00 | 73 | 1018.6 |
| 20260902235511 | 66 | 148 | 1.0 | 2.0 | 0.00 | 0.00 | 0.00 | 71 | 1018.9 |
| 20260902235011 | 66 | 175 | 1.0 | 3.0 | 0.00 | 0.00 | 0.00 | 71 | 1019.0 |
| 20260902234511 | 67 | 180 | 1.0 | 3.0 | 0.00 | 0.00 | 0.00 | 71 | 1019.0 |
| 20260902234011 | 67 | 146 | 1.0 | 3.0 | 0.00 | 0.00 | 0.00 | 69 | 1019.0 |
| 20260902233511 | 67 | 140 | 1.0 | 2.0 | 0.00 | 0.00 | 0.00 | 70 | 1019.0 |
| 20260902233011 | 67 | 133 | 1.0 | 1.0 | 0.00 | 0.00 | 0.00 | 70 | 1019.2 |
| 20260902232511 | 67 | 59 | 0.0 | 1.0 | 0.00 | 0.00 | 0.00 | 70 | 1019.1 |
| 20260902232011 | 67 | 146 | 0.0 | 1.0 | 0.00 | 0.00 | 0.00 | 69 | 1019.3 |
| 20260902231511 | 67 | 111 | 0.0 | 1.0 | 0.00 | 0.00 | 0.00 | 70 | 1019.3 |
| 20260902231011 | 67 | 206 | 1.0 | 1.0 | 0.00 | 0.00 | 0.00 | 73 | 1019.3 |
| 20260902230512 | 67 | 26 | 1.0 | 1.0 | 0.00 | 0.00 | 0.00 | 76 | 1019.2 |
| 20260902230011 | 67 | 142 | 0.0 | 1.0 | 0.00 | 0.00 | 0.00 | 74 | 1019.2 |
| 20260902225511 | 67 | 186 | 1.0 | 2.0 | 0.00 | 0.00 | 0.00 | 77 | 1019.2 |
| 20260902225010 | 68 | 149 | 1.0 | 2.0 | 0.00 | 0.00 | 0.00 | 76 | 1019.2 |
| 20260902224511 | 68 | 64 | 0.0 | 1.0 | 0.00 | 0.00 | 0.00 | 76 | 1019.3 |
| 20260902224011 | 68 | 82 | 0.0 | 2.0 | 0.00 | 0.00 | 0.00 | 74 | 1019.4 |
| 20260902223511 | 68 | 54 | 0.0 | 2.0 | 0.00 | 0.00 | 0.00 | 74 | 1019.3 |
| 20260902223011 | 68 | 263 | 0.0 | 1.0 | 0.00 | 0.00 | 0.00 | 74 | 1019.4 |
| 20260902222511 | 69 | 322 | 1.0 | 2.0 | 0.00 | 0.00 | 0.00 | 72 | 1019.4 |
| 20260902222010 | 69 | 264 | 1.0 | 3.0 | 0.00 | 0.00 | 0.00 | 72 | 1019.4 |
| 20260902221511 | 69 | 7 | 1.0 | 5.0 | 0.00 | 0.00 | 0.00 | 70 | 1019.4 |
| 20260902221012 | 69 | 62 | 1.0 | 5.0 | 0.00 | 0.00 | 0.00 | 69 | 1019.5 |
| 20260902220511 | 69 | 79 | 2.0 | 6.0 | 0.00 | 0.00 | 0.00 | 68 | 1019.2 |
| 20260902215511 | 69 | 90 | 2.0 | 5.0 | 0.00 | 0.00 | 0.00 | 68 | 1019.0 |
| 20260902215010 | 69 | 107 | 2.0 | 5.0 | 0.00 | 0.00 | 0.00 | 67 | 1019.0 |
| 20260902214511 | 70 | 59 | 1.0 | 5.0 | 0.00 | 0.00 | 0.00 | 66 | 1019.0 |
| 20260902214011 | 70 | 85 | 2.0 | 8.0 | 0.00 | 0.00 | 0.00 | 65 | 1018.8 |
| 20260902213511 | 70 | 289 | 2.0 | 7.0 | 0.00 | 0.00 | 0.00 | 67 | 1018.8 |
| 20260902213011 | 70 | 61 | 2.0 | 7.0 | 0.00 | 0.00 | 0.00 | 66 | 1018.8 |
| 20260902212510 | 70 | 92 | 2.0 | 5.0 | 0.00 | 0.00 | 0.00 | 68 | 1018.6 |
| 20260902212011 | 70 | 56 | 3.0 | 7.0 | 0.00 | 0.00 | 0.00 | 67 | 1018.5 |
| 20260902211511 | 70 | 114 | 2.0 | 7.0 | 0.00 | 0.00 | 0.00 | 69 | 1018.5 |
| 20260902211010 | 70 | 33 | 1.0 | 7.0 | 0.00 | 0.00 | 0.00 | 68 | 1018.5 |
| 20260902210010 | 70 | 65 | 1.0 | 5.0 | 0.00 | 0.00 | 0.00 | 68 | 1018.6 |
| 20260902205011 | 71 | 44 | 3.0 | 9.0 | 0.00 | 0.00 | 0.00 | 67 | 1019.0 |
| 20260902204510 | 71 | 293 | 3.0 | 7.0 | 0.00 | 0.00 | 0.00 | 66 | 1019.1 |
| 20260902204011 | 71 | 73 | 1.0 | 3.0 | 0.00 | 0.00 | 0.00 | 66 | 1019.2 |
| 20260902203010 | 71 | 9 | 2.0 | 6.0 | 0.00 | 0.00 | 0.00 | 65 | 1019.2 |
| 20260902202511 | 71 | 46 | 2.0 | 5.0 | 0.00 | 0.00 | 0.00 | 65 | 1019.3 |
| 20260902202010 | 71 | 146 | 1.0 | 6.0 | 0.00 | 0.00 | 0.00 | 64 | 1019.3 |
| 20260902201511 | 72 | 60 | 2.0 | 7.0 | 0.00 | 0.00 | 0.00 | 64 | 1019.3 |
| 20260902201010 | 73 | 198 | 1.0 | 2.0 | 0.00 | 0.00 | 0.00 | 62 | 1019.5 |
| 20260902200511 | 73 | 71 | 3.0 | 6.0 | 0.00 | 0.00 | 0.00 | 59 | 1019.5 |
| 20260902200010 | 73 | 57 | 1.0 | 3.0 | 0.00 | 0.00 | 0.00 | 56 | 1019.5 |
| 20260902195510 | 73 | 58 | 1.0 | 2.0 | 0.00 | 0.00 | 0.00 | 55 | 1019.5 |
| 20260902195011 | 74 | 48 | 1.0 | 1.0 | 0.00 | 0.00 | 0.00 | 57 | 1019.5 |
| 20260902194510 | 74 | 137 | 1.0 | 6.0 | 0.00 | 0.00 | 0.00 | 52 | 1019.4 |
| 20260902194011 | 74 | 48 | 2.0 | 3.0 | 0.00 | 0.00 | 0.00 | 52 | 1019.2 |
| 20260902193510 | 74 | 53 | 1.0 | 2.0 | 0.00 | 0.00 | 0.00 | 53 | 1019.3 |
| 20260902192510 | 75 | 134 | 2.0 | 3.0 | 0.00 | 0.00 | 0.00 | 53 | 1019.4 |
| 20260902192010 | 75 | 222 | 2.0 | 3.0 | 0.00 | 0.00 | 0.00 | 54 | 1019.4 |
| 20260902191511 | 75 | 216 | 1.0 | 3.0 | 0.00 | 0.00 | 0.00 | 50 | 1019.5 |
| 20260902191010 | 76 | 185 | 1.0 | 3.0 | 0.00 | 0.00 | 0.00 | 51 | 1019.5 |
| 20260902190011 | 75 | 255 | 1.0 | 3.0 | 0.00 | 0.00 | 0.00 | 47 | 1019.6 |
| 20260902185011 | 76 | 240 | 2.0 | 7.0 | 0.00 | 0.00 | 0.00 | 47 | 1019.5 |
| 20260902184510 | 76 | 171 | 1.0 | 5.0 | 0.00 | 0.00 | 0.00 | 51 | 1019.5 |
| 20260902184010 | 76 | 185 | 2.0 | 7.0 | 0.00 | 0.00 | 0.00 | 48 | 1019.5 |
| 20260902183511 | 76 | 238 | 3.0 | 8.0 | 0.00 | 0.00 | 0.00 | 55 | 1019.7 |
| 20260902183010 | 76 | 53 | 1.0 | 6.0 | 0.00 | 0.00 | 0.00 | 50 | 1019.5 |
| 20260902182510 | 75 | 21 | 4.0 | 7.0 | 0.00 | 0.00 | 0.00 | 53 | 1019.7 |
| 20260902182010 | 75 | 167 | 1.0 | 5.0 | 0.00 | 0.00 | 0.00 | 54 | 1019.6 |
| 20260902181510 | 75 | 349 | 1.0 | 5.0 | 0.00 | 0.00 | 0.00 | 53 | 1019.6 |
| 20260902181011 | 76 | 23 | 1.0 | 5.0 | 0.00 | 0.00 | 0.00 | 54 | 1019.6 |
| 20260902180510 | 76 | 173 | 2.0 | 5.0 | 0.00 | 0.00 | 0.00 | 56 | 1019.7 |
| 20260902180010 | 76 | 107 | 1.0 | 5.0 | 0.00 | 0.00 | 0.00 | 59 | 1019.5 |
| 20260902175510 | 76 | 216 | 2.0 | 6.0 | 0.00 | 0.00 | 0.00 | 55 | 1019.5 |
| 20260902175010 | 76 | 264 | 2.0 | 5.0 | 0.00 | 0.00 | 0.00 | 54 | 1019.5 |
| 20260902174511 | 75 | 200 | 2.0 | 5.0 | 0.00 | 0.00 | 0.00 | 55 | 1019.5 |
| 20260902174010 | 75 | 238 | 1.0 | 5.0 | 0.00 | 0.00 | 0.00 | 57 | 1019.5 |
| 20260902173510 | 74 | 106 | 2.0 | 6.0 | 0.00 | 0.00 | 0.00 | 57 | 1019.5 |
| 20260902173011 | 74 | 66 | 1.0 | 6.0 | 0.00 | 0.00 | 0.00 | 55 | 1019.6 |
| 20260902172510 | 74 | 124 | 2.0 | 5.0 | 0.00 | 0.00 | 0.00 | 59 | 1019.7 |
| 20260902172010 | 74 | 153 | 2.0 | 7.0 | 0.00 | 0.02 | 0.00 | 58 | 1019.8 |
| 20260902171510 | 74 | 91 | 2.0 | 5.0 | 0.00 | 0.02 | 0.00 | 57 | 1019.8 |
| 20260902171010 | 74 | 253 | 2.0 | 5.0 | 0.00 | 0.02 | 0.00 | 57 | 1020.0 |
| 20260902165510 | 73 | 180 | 2.0 | 5.0 | 0.00 | 0.02 | 0.00 | 58 | 1020.0 |
| 20260902165010 | 74 | 189 | 2.0 | 5.0 | 0.00 | 0.02 | 0.00 | 57 | 1020.2 |
| 20260902164510 | 74 | 5 | 3.0 | 10.0 | 0.00 | 0.02 | 0.00 | 56 | 1020.1 |
| 20260902164010 | 76 | 141 | 1.0 | 3.0 | 0.00 | 0.02 | 0.00 | 57 | 1020.3 |
| 20260902163510 | 75 | 191 | 2.0 | 5.0 | 0.00 | 0.02 | 0.00 | 58 | 1020.3 |
| 20260902163010 | 74 | 227 | 1.0 | 3.0 | 0.00 | 0.02 | 0.00 | 60 | 1020.5 |
| 20260902162510 | 74 | 183 | 1.0 | 5.0 | 0.00 | 0.02 | 0.00 | 62 | 1020.2 |
| 20260902162010 | 74 | 138 | 4.0 | 9.0 | 0.00 | 0.02 | 0.00 | 57 | 1020.3 |
| 20260902161510 | 75 | 182 | 2.0 | 5.0 | 0.00 | 0.02 | 0.00 | 60 | 1020.1 |
| 20260902160510 | 73 | 47 | 2.0 | 3.0 | 0.00 | 0.02 | 0.00 | 60 | 1020.4 |
| 20260902160010 | 72 | 117 | 3.0 | 7.0 | 0.00 | 0.02 | 0.00 | 64 | 1020.4 |
| 20260902155009 | 73 | 18 | 1.0 | 3.0 | 0.00 | 0.02 | 0.00 | 64 | 1020.5 |
| 20260902154510 | 73 | 14 | 2.0 | 6.0 | 0.00 | 0.02 | 0.00 | 62 | 1020.5 |
| 20260902154009 | 73 | 131 | 2.0 | 7.0 | 0.00 | 0.02 | 0.00 | 63 | 1020.7 |
| 20260902153510 | 73 | 55 | 3.0 | 7.0 | 0.00 | 0.02 | 0.00 | 61 | 1020.9 |
| 20260902153009 | 73 | 18 | 0.0 | 5.0 | 0.00 | 0.02 | 0.00 | 64 | 1020.9 |
| 20260902152510 | 73 | 9 | 1.0 | 3.0 | 0.00 | 0.02 | 0.00 | 65 | 1021.0 |
| 20260902152010 | 73 | 229 | 1.0 | 5.0 | 0.00 | 0.02 | 0.00 | 64 | 1021.0 |
| 20260902151010 | 73 | 196 | 1.0 | 2.0 | 0.00 | 0.02 | 0.00 | 59 | 1021.1 |
| 20260902150510 | 72 | 71 | 1.0 | 6.0 | 0.00 | 0.02 | 0.00 | 64 | 1021.1 |
| 20260902150009 | 72 | 207 | 1.0 | 3.0 | 0.00 | 0.02 | 0.00 | 63 | 1020.9 |
| 20260902145510 | 73 | 168 | 1.0 | 2.0 | 0.00 | 0.02 | 0.00 | 60 | 1021.1 |
| 20260902144510 | 72 | 52 | 4.0 | 7.0 | 0.00 | 0.02 | 0.00 | 64 | 1021.0 |
| 20260902143510 | 70 | 32 | 2.0 | 6.0 | 0.00 | 0.02 | 0.00 | 70 | 1020.9 |
| 20260902143009 | 69 | 52 | 3.0 | 6.0 | 0.00 | 0.02 | 0.00 | 73 | 1020.9 |
| 20260902142510 | 69 | 23 | 2.0 | 7.0 | 0.00 | 0.02 | 0.00 | 70 | 1020.7 |
| 20260902141510 | 70 | 37 | 1.0 | 2.0 | 0.00 | 0.02 | 0.00 | 75 | 1020.6 |
| 20260902141009 | 69 | 72 | 1.0 | 6.0 | 0.00 | 0.02 | 0.00 | 78 | 1020.4 |
| 20260902140510 | 69 | 37 | 1.0 | 6.0 | 0.00 | 0.02 | 0.00 | 77 | 1020.3 |
| 20260902140009 | 69 | 54 | 3.0 | 6.0 | 0.00 | 0.02 | 0.00 | 77 | 1020.4 |
| 20260902135510 | 69 | 62 | 1.0 | 2.0 | 0.00 | 0.02 | 0.00 | 78 | 1020.4 |
| 20260902135009 | 69 | 67 | 1.0 | 5.0 | 0.00 | 0.02 | 0.00 | 81 | 1020.2 |
| 20260902133509 | 67 | 243 | 1.0 | 3.0 | 0.00 | 0.04 | 0.00 | 89 | 1020.3 |
| 20260902133010 | 66 | 122 | 2.0 | 10.0 | 0.00 | 0.04 | 0.00 | 91 | 1020.3 |
| 20260902132509 | 66 | 53 | 2.0 | 6.0 | 0.00 | 0.06 | 0.00 | 92 | 1020.2 |
| 20260902132009 | 67 | 131 | 1.0 | 7.0 | 0.00 | 0.06 | 0.00 | 90 | 1020.0 |
| 20260902131509 | 67 | 71 | 1.0 | 3.0 | 0.00 | 0.06 | 0.00 | 90 | 1020.0 |